Radiation Dose at Monitoring Post of Fukushima Daini Nuclear Power Station
Date,Time,MP-1(microSv/h),MP-2(microSv/h),MP-3(microSv/h),MP-4(microSv/h),MP-5(microSv/h),MP-6(microSv/h),MP-7(microSv/h),Wind Direction,Wind Velocity(m/s),Rain
2020/01/27,00:00,0.181,0.162,0.276,0.256,0.252,0.141,0.087,west-northwest,4.9,No
2020/01/27,00:10,0.182,0.162,0.275,0.256,0.253,0.140,0.086,west-northwest,3.3,No
2020/01/27,00:20,0.183,0.162,0.275,0.255,0.253,0.140,0.086,west-northwest,4.9,No
2020/01/27,00:30,0.182,0.162,0.276,0.256,0.252,0.140,0.087,west-northwest,5.7,No
2020/01/27,00:40,0.182,0.163,0.276,0.256,0.252,0.140,0.085,west-northwest,5.4,No
2020/01/27,00:50,0.182,0.162,0.276,0.256,0.252,0.141,0.086,northwest,7.9,No
2020/01/27,01:00,0.181,0.162,0.276,0.255,0.251,0.140,0.086,northwest,6.8,No
2020/01/27,01:10,0.182,0.163,0.275,0.255,0.252,0.140,0.086,northwest,5.5,No
2020/01/27,01:20,0.181,0.163,0.276,0.255,0.252,0.139,0.085,northwest,6.1,No
2020/01/27,01:30,0.182,0.162,0.276,0.255,0.251,0.141,0.085,northwest,6.7,No
2020/01/27,01:40,0.182,0.162,0.275,0.256,0.253,0.140,0.085,north-northwest,5.9,No
2020/01/27,01:50,0.183,0.162,0.275,0.256,0.253,0.141,0.086,west-northwest,7.7,No
2020/01/27,02:00,0.182,0.162,0.276,0.256,0.253,0.139,0.086,west-northwest,7.3,No
2020/01/27,02:10,0.182,0.162,0.277,0.255,0.253,0.140,0.085,northwest,6.0,No
2020/01/27,02:20,0.183,0.163,0.276,0.255,0.253,0.140,0.086,west-northwest,5.3,No
2020/01/27,02:30,0.182,0.163,0.275,0.255,0.251,0.140,0.086,northwest,3.9,No
2020/01/27,02:40,0.182,0.162,0.276,0.256,0.253,0.139,0.086,west-northwest,4.4,No
2020/01/27,02:50,0.183,0.163,0.274,0.256,0.253,0.140,0.086,northwest,4.1,No
2020/01/27,03:00,0.181,0.163,0.276,0.256,0.253,0.140,0.086,northwest,3.9,No
2020/01/27,03:10,0.183,0.162,0.275,0.256,0.252,0.140,0.086,northwest,4.1,No
2020/01/27,03:20,0.182,0.163,0.276,0.255,0.253,0.141,0.086,northwest,3.1,No
2020/01/27,03:30,0.181,0.162,0.276,0.255,0.252,0.140,0.086,northwest,3.7,No
2020/01/27,03:40,0.182,0.162,0.276,0.256,0.252,0.140,0.086,northwest,3.4,No
2020/01/27,03:50,0.182,0.162,0.275,0.256,0.253,0.140,0.085,northwest,3.8,No
2020/01/27,04:00,0.182,0.162,0.277,0.255,0.252,0.141,0.085,northwest,2.9,No
2020/01/27,04:10,0.182,0.163,0.276,0.255,0.252,0.139,0.086,northwest,3.1,No
2020/01/27,04:20,0.182,0.162,0.275,0.255,0.253,0.140,0.086,northwest,3.3,No
2020/01/27,04:30,0.182,0.162,0.276,0.255,0.252,0.139,0.086,northwest,2.9,No
2020/01/27,04:40,0.182,0.162,0.275,0.255,0.254,0.140,0.085,northwest,3.2,No
2020/01/27,04:50,0.183,0.162,0.276,0.256,0.252,0.140,0.086,northwest,3.3,No
2020/01/27,05:00,0.182,0.162,0.276,0.256,0.253,0.140,0.085,north-northwest,4.3,No
2020/01/27,05:10,0.182,0.162,0.275,0.256,0.253,0.140,0.086,north-northwest,4.1,No
2020/01/27,05:20,0.181,0.162,0.276,0.255,0.254,0.140,0.086,north-northwest,4.0,No
2020/01/27,05:30,0.182,0.163,0.276,0.256,0.254,0.140,0.086,north-northwest,3.8,No
2020/01/27,05:40,0.184,0.162,0.275,0.255,0.254,0.139,0.086,north-northwest,3.6,No
2020/01/27,05:50,0.180,0.162,0.277,0.255,0.252,0.140,0.086,north-northwest,2.9,No
2020/01/27,06:00,0.182,0.162,0.276,0.255,0.253,0.140,0.086,north-northwest,3.9,No
2020/01/27,06:10,0.182,0.163,0.275,0.256,0.253,0.139,0.087,northwest,2.8,No
2020/01/27,06:20,0.181,0.161,0.275,0.255,0.253,0.140,0.086,northwest,3.6,No
2020/01/27,06:30,0.182,0.162,0.276,0.255,0.253,0.139,0.086,northwest,3.7,No
2020/01/27,06:40,0.181,0.162,0.277,0.256,0.252,0.140,0.085,northwest,3.6,No
2020/01/27,06:50,0.182,0.162,0.276,0.256,0.253,0.140,0.086,northwest,3.3,No
2020/01/27,07:00,0.182,0.161,0.276,0.255,0.253,0.140,0.086,northwest,3.5,No
2020/01/27,07:10,0.182,0.162,0.275,0.255,0.251,0.140,0.085,northwest,2.7,No
2020/01/27,07:20,0.182,0.162,0.276,0.255,0.253,0.140,0.086,northwest,2.2,No
2020/01/27,07:30,0.182,0.163,0.275,0.255,0.252,0.140,0.085,west-northwest,1.4,No
2020/01/27,07:40,0.181,0.162,0.276,0.255,0.254,0.139,0.087,north-northwest,3.2,No
2020/01/27,07:50,0.182,0.161,0.276,0.256,0.253,0.139,0.086,north-northwest,3.8,No
2020/01/27,08:00,0.181,0.162,0.276,0.255,0.253,0.140,0.087,north-northwest,4.9,No
2020/01/27,08:10,0.182,0.162,0.276,0.256,0.253,0.140,0.086,north-northwest,5.2,No
2020/01/27,08:20,0.182,0.162,0.275,0.255,0.252,0.140,0.086,north-northwest,4.8,No
2020/01/27,08:30,0.183,0.163,0.277,0.257,0.252,0.140,0.086,northwest,3.4,No
2020/01/27,08:40,0.182,0.162,0.276,0.257,0.252,0.139,0.086,northwest,4.4,No
2020/01/27,08:50,0.181,0.163,0.275,0.255,0.253,0.140,0.086,northwest,5.9,No
2020/01/27,09:00,0.183,0.163,0.276,0.256,0.251,0.139,0.086,northwest,5.8,No
2020/01/27,09:10,0.183,0.162,0.276,0.257,0.252,0.139,0.086,northwest,5.7,No
2020/01/27,09:20,0.182,0.162,0.276,0.255,0.253,0.139,0.086,northwest,4.9,No
2020/01/27,09:30,0.182,0.162,0.275,0.256,0.253,0.140,0.086,northwest,5.7,No
2020/01/27,09:40,0.182,0.162,0.274,0.256,0.253,0.140,0.085,north-northwest,5.5,No
2020/01/27,09:50,0.182,0.162,0.275,0.255,0.254,0.139,0.086,northwest,6.5,No
2020/01/27,10:00,0.182,0.161,0.275,0.256,0.253,0.139,0.086,northwest,6.3,No
2020/01/27,10:10,0.182,0.161,0.276,0.254,0.252,0.141,0.086,northwest,6.1,No
2020/01/27,10:20,0.181,0.161,0.276,0.254,0.252,0.140,0.085,northwest,5.4,No
2020/01/27,10:30,0.183,0.162,0.276,0.255,0.253,0.141,0.085,north-northwest,3.9,No
2020/01/27,10:40,0.182,0.161,0.275,0.256,0.253,0.139,0.085,north-northwest,4.0,No
2020/01/27,10:50,0.181,0.163,0.276,0.256,0.252,0.139,0.086,north-northwest,3.3,No
2020/01/27,11:00,0.182,0.163,0.274,0.256,0.253,0.139,0.086,north-northwest,4.0,No
2020/01/27,11:10,0.182,0.162,0.275,0.256,0.253,0.140,0.086,north-northwest,3.9,No
2020/01/27,11:20,0.182,0.161,0.275,0.255,0.252,0.139,0.085,north-northwest,3.1,No
2020/01/27,11:30,0.181,0.162,0.276,0.255,0.252,0.140,0.085,north-northwest,3.4,No
2020/01/27,11:40,0.182,0.162,0.275,0.256,0.253,0.140,0.085,north-northwest,3.1,No
2020/01/27,11:50,0.182,0.161,0.275,0.255,0.252,0.140,0.086,north-northwest,2.6,No
2020/01/27,12:00,0.181,0.162,0.275,0.255,0.254,0.140,0.086,north-northwest,2.6,No
2020/01/27,12:10,0.182,0.162,0.274,0.255,0.252,0.140,0.086,north,1.5,No
2020/01/27,12:20,0.181,0.161,0.274,0.256,0.253,0.140,0.086,northeast,1.8,No
2020/01/27,12:30,0.182,0.162,0.276,0.256,0.253,0.139,0.087,northeast,2.1,No
2020/01/27,12:40,0.182,0.162,0.275,0.255,0.253,0.140,0.086,north-northeast,2.6,No
2020/01/27,12:50,0.182,0.162,0.275,0.255,0.252,0.140,0.085,northeast,2.1,No
2020/01/27,13:00,0.181,0.161,0.275,0.255,0.253,0.140,0.086,northeast,2.7,No
2020/01/27,13:10,0.182,0.164,0.275,0.255,0.253,0.139,0.085,northeast,2.5,No
2020/01/27,13:20,0.182,0.162,0.273,0.257,0.253,0.139,0.085,northeast,2.3,No
2020/01/27,13:30,0.183,0.161,0.276,0.256,0.253,0.140,0.086,northeast,2.9,No
2020/01/27,13:40,0.180,0.161,0.274,0.255,0.253,0.141,0.085,northeast,2.5,No
2020/01/27,13:50,0.180,0.162,0.274,0.255,0.254,0.140,0.086,northeast,1.7,No
2020/01/27,14:00,0.183,0.161,0.275,0.255,0.252,0.140,0.086,northeast,3.0,No
2020/01/27,14:10,0.182,0.163,0.276,0.255,0.253,0.140,0.086,northeast,2.7,No
2020/01/27,14:20,0.182,0.162,0.276,0.255,0.252,0.140,0.086,north-northeast,3.0,No
2020/01/27,14:30,0.182,0.163,0.275,0.256,0.254,0.139,0.085,northeast,2.7,No
2020/01/27,14:40,0.182,0.161,0.275,0.254,0.254,0.140,0.085,north-northeast,3.3,No
2020/01/27,14:50,0.181,0.162,0.275,0.255,0.254,0.141,0.086,north-northeast,2.8,No
2020/01/27,15:00,0.182,0.162,0.274,0.255,0.253,0.140,0.086,north-northeast,3.6,No
2020/01/27,15:10,0.181,0.162,0.275,0.256,0.255,0.139,0.086,north-northeast,2.8,No
2020/01/27,15:20,0.183,0.163,0.276,0.255,0.252,0.139,0.085,north-northeast,2.8,No
2020/01/27,15:30,0.182,0.163,0.276,0.256,0.253,0.140,0.086,north,2.7,No
2020/01/27,15:40,0.184,0.162,0.275,0.256,0.253,0.140,0.085,north,2.6,No
2020/01/27,15:50,0.182,0.161,0.274,0.256,0.253,0.140,0.086,north-northwest,3.4,No
2020/01/27,16:00,0.181,0.162,0.276,0.255,0.252,0.139,0.086,northwest,2.9,No
2020/01/27,16:10,0.181,0.163,0.275,0.254,0.251,0.140,0.086,northwest,3.0,No
2020/01/27,16:20,0.183,0.162,0.274,0.257,0.253,0.140,0.085,north-northwest,3.2,No
2020/01/27,16:30,0.182,0.163,0.275,0.257,0.253,0.140,0.086,north-northwest,4.3,No
2020/01/27,16:40,0.182,0.162,0.277,0.255,0.252,0.140,0.086,north-northwest,3.8,No
2020/01/27,16:50,0.181,0.162,0.275,0.255,0.252,0.140,0.085,northwest,3.6,No
2020/01/27,17:00,0.183,0.162,0.274,0.256,0.252,0.140,0.086,northwest,3.5,No
2020/01/27,17:10,0.182,0.162,0.275,0.255,0.252,0.140,0.085,north-northwest,3.2,No
2020/01/27,17:20,0.181,0.163,0.275,0.256,0.253,0.141,0.085,northwest,2.8,No
2020/01/27,17:30,0.182,0.162,0.277,0.257,0.252,0.140,0.086,northwest,3.2,No
2020/01/27,17:40,0.182,0.163,0.275,0.256,0.252,0.141,0.085,northwest,3.7,No
2020/01/27,17:50,0.182,0.162,0.275,0.256,0.252,0.141,0.086,northwest,4.3,No
2020/01/27,18:00,0.181,0.163,0.276,0.255,0.252,0.140,0.085,northwest,4.0,No
2020/01/27,18:10,0.182,0.163,0.275,0.257,0.253,0.140,0.085,northwest,4.2,No
2020/01/27,18:20,0.182,0.163,0.276,0.255,0.253,0.140,0.086,northwest,3.5,No
2020/01/27,18:30,0.181,0.162,0.274,0.254,0.253,0.140,0.085,north-northwest,3.7,No
2020/01/27,18:40,0.181,0.163,0.275,0.256,0.252,0.140,0.086,north-northwest,3.9,No
2020/01/27,18:50,0.182,0.163,0.275,0.256,0.252,0.140,0.086,north-northwest,3.8,No
2020/01/27,19:00,0.183,0.162,0.276,0.256,0.252,0.140,0.086,north-northwest,3.6,No
2020/01/27,19:10,0.182,0.162,0.276,0.257,0.252,0.140,0.086,north-northwest,4.0,No
2020/01/27,19:20,0.182,0.162,0.276,0.256,0.253,0.140,0.086,north-northwest,4.1,No
2020/01/27,19:30,0.182,0.162,0.277,0.257,0.252,0.139,0.085,north-northwest,4.2,No
2020/01/27,19:40,0.182,0.162,0.274,0.256,0.253,0.139,0.086,north-northwest,4.2,No
2020/01/27,19:50,0.183,0.162,0.275,0.256,0.253,0.140,0.085,north-northwest,3.7,No
2020/01/27,20:00,0.182,0.162,0.276,0.256,0.252,0.140,0.086,north-northwest,4.0,No
2020/01/27,20:10,0.182,0.162,0.276,0.256,0.253,0.141,0.086,north-northwest,3.7,No
2020/01/27,20:20,0.183,0.162,0.275,0.257,0.253,0.140,0.086,north-northwest,3.6,No
2020/01/27,20:30,0.182,0.162,0.274,0.256,0.252,0.140,0.086,north-northwest,3.6,No
2020/01/27,20:40,0.182,0.163,0.276,0.255,0.253,0.140,0.086,north,3.5,No
2020/01/27,20:50,0.182,0.162,0.277,0.256,0.252,0.140,0.086,north-northwest,3.3,No
2020/01/27,21:00,0.184,0.161,0.276,0.256,0.253,0.140,0.085,north-northwest,3.5,No
2020/01/27,21:10,0.182,0.162,0.276,0.256,0.252,0.140,0.086,north-northwest,3.5,No
2020/01/27,21:20,0.183,0.163,0.275,0.255,0.253,0.140,0.085,north-northwest,4.5,No
2020/01/27,21:30,0.183,0.163,0.276,0.257,0.253,0.141,0.086,north,3.4,No
2020/01/27,21:40,0.183,0.162,0.275,0.258,0.253,0.140,0.086,north,3.8,No
2020/01/27,21:50,0.181,0.162,0.276,0.257,0.253,0.140,0.086,north,3.2,No
2020/01/27,22:00,0.182,0.162,0.276,0.257,0.252,0.140,0.086,north,2.5,No
2020/01/27,22:10,0.183,0.163,0.277,0.256,0.253,0.141,0.085,north-northeast,2.6,No
2020/01/27,22:20,0.182,0.162,0.277,0.256,0.253,0.140,0.086,east-northeast,4.6,No
2020/01/27,22:30,0.182,0.163,0.277,0.257,0.253,0.140,0.086,east-northeast,3.0,No
2020/01/27,22:40,0.182,0.162,0.275,0.255,0.253,0.141,0.086,east-northeast,4.6,No
2020/01/27,22:50,0.183,0.162,0.277,0.256,0.253,0.141,0.086,east-northeast,4.2,No
2020/01/27,23:00,0.182,0.163,0.277,0.256,0.252,0.140,0.086,east-northeast,4.6,No
2020/01/27,23:10,0.182,0.162,0.276,0.256,0.254,0.140,0.086,northeast,4.6,No
2020/01/27,23:20,0.182,0.162,0.276,0.256,0.253,0.140,0.086,northeast,4.1,No
2020/01/27,23:30,0.182,0.163,0.276,0.257,0.253,0.141,0.085,east-northeast,4.4,Yes
2020/01/27,23:40,0.182,0.163,0.275,0.256,0.253,0.140,0.086,east-northeast,5.6,No
2020/01/27,23:50,0.182,0.163,0.275,0.256,0.254,0.140,0.086,east-northeast,6.7,Yes
